DW9310 Weather Reports


time (UTC)temp
C
wind
direction
speed
KPH
gust
KPH
rain 1hr
cm
rain 24hr
cm
rain mn
cm
humidity
%
barometer
mb
20260505083513 6 346 4.8 4.8 0.00 0.00 0.00 47 1004.1
20260505083013 6 336 3.2 4.8 0.00 0.00 0.00 46 1004.1
20260505082523 6 3 1.6 3.2 0.00 0.00 0.00 46 1004.1
20260505082223 6 189 1.6 3.2 0.00 0.00 0.00 47 1004.1
20260505081523 6 338 4.8 6.4 0.00 0.00 0.00 47 1004.4
20260505081022 6 311 3.2 3.2 0.00 0.00 0.00 47 1004.1
20260505080516 6 22 1.6 3.2 0.00 0.00 0.00 45 1004.1
20260505080227 6 22 3.2 3.2 0.00 0.00 0.00 45 1004.1
20260505075523 6 40 4.8 4.8 0.00 0.00 0.00 45 1003.7
20260505075013 6 76 1.6 4.8 0.00 0.00 0.00 45 1004.1
20260505074513 6 355 3.2 3.2 0.00 0.00 0.00 44 1003.7
20260505074023 7 56 0.0 3.2 0.00 0.00 0.00 44 1003.7
20260505073513 7 237 3.2 6.4 0.00 0.00 0.00 44 1003.7
20260505073010 7 317 3.2 6.4 0.00 0.00 0.00 44 1003.7
20260505072513 7 317 1.6 9.7 0.00 0.00 0.00 43 1003.7
20260505072012 7 333 3.2 6.4 0.00 0.00 0.00 43 1003.7
20260505071738 7 355 9.7 9.7 0.00 0.00 0.00 44 1003.7
20260505071013 7 353 6.4 9.7 0.00 0.00 0.00 44 1003.7
20260505070513 7 319 6.4 9.7 0.00 0.00 0.00 45 1003.7
20260505070023 7 13 4.8 4.8 0.00 0.00 0.00 46 1003.7
20260505065513 7 355 4.8 6.4 0.00 0.00 0.00 46 1003.7
20260505065013 7 8 6.4 8.0 0.00 0.00 0.00 46 1004.1
20260505064513 8 358 6.4 8.0 0.00 0.00 0.00 46 1003.4
20260505064022 8 351 8.0 11.3 0.00 0.00 0.00 44 1003.4
20260505063513 8 339 3.2 8.0 0.00 0.00 0.00 44 1003.7
20260505063013 8 301 1.6 3.2 0.00 0.00 0.00 43 1003.4
20260505062738 8 306 8.0 11.3 0.00 0.00 0.00 42 1003.0
20260505062020 8 329 4.8 8.0 0.00 0.00 0.00 42 1003.0
20260505061513 8 315 3.2 9.7 0.00 0.00 0.00 43 1003.0
20260505061003 9 332 6.4 11.3 0.00 0.00 0.00 44 1003.4
20260505060520 9 333 6.4 6.4 0.00 0.00 0.00 44 1002.7
20260505060008 9 316 4.8 9.7 0.00 0.00 0.00 44 1003.0
20260505055522 9 357 4.8 8.0 0.00 0.00 0.00 43 1003.0
20260505055229 9 323 6.4 12.9 0.00 0.00 0.00 42 1003.0
20260505054513 10 307 8.0 14.5 0.00 0.00 0.00 42 1002.7
20260505054023 10 325 8.0 8.0 0.00 0.00 0.00 42 1002.7
20260505053521 10 356 14.5 17.7 0.00 0.00 0.00 41 1002.4
20260505053013 10 334 4.8 11.3 0.00 0.00 0.00 41 1002.0
20260505052512 10 325 8.0 8.0 0.00 0.00 0.00 41 1002.4
20260505052020 10 305 6.4 8.0 0.00 0.00 0.00 41 1002.4
20260505051513 10 356 9.7 12.9 0.00 0.00 0.00 41 1002.0
20260505051006 10 350 8.0 9.7 0.00 0.00 0.00 40 1002.0
20260505050513 11 310 9.7 16.1 0.00 0.00 0.00 39 1001.7
20260505041513 12 277 6.4 9.7 0.00 0.00 0.00 40 1000.3
20260505041022 12 334 6.4 12.9 0.00 0.00 0.00 40 1000.3
20260505040513 12 326 8.0 11.3 0.00 0.00 0.00 39 1000.3
20260505040013 12 318 9.7 12.9 0.00 0.00 0.00 39 1000.3
20260505035737 12 312 4.8 11.3 0.00 0.00 0.00 39 1000.0
20260505035013 12 329 9.7 11.3 0.00 0.00 0.00 39 1000.0
20260505034513 12 1 6.4 9.7 0.00 0.00 0.00 39 1000.0
20260505034022 13 329 11.3 12.9 0.00 0.00 0.00 39 999.7
20260505033513 13 339 11.3 19.3 0.00 0.00 0.00 38 999.7
20260505033013 13 342 4.8 16.1 0.00 0.00 0.00 38 999.7
20260505032523 13 344 4.8 8.0 0.00 0.00 0.00 40 999.3
20260505032013 13 139 6.4 11.3 0.00 0.00 0.00 39 998.6
20260505031513 13 14 1.6 6.4 0.00 0.00 0.00 39 998.6
20260505031023 13 349 3.2 6.4 0.00 0.00 0.00 38 998.3
20260505030521 13 30 6.4 8.0 0.00 0.00 0.00 37 998.0
20260505030008 13 316 12.9 16.1 0.00 0.00 0.00 36 998.0
20260505025522 14 338 6.4 9.7 0.00 0.00 0.00 35 997.6
20260505025236 14 333 12.9 14.5 0.00 0.00 0.00 35 997.6
20260505024513 14 324 6.4 11.3 0.00 0.00 0.00 35 998.0
20260505024003 14 325 16.1 17.7 0.00 0.00 0.00 34 997.6
20260505023520 14 330 9.7 17.7 0.00 0.00 0.00 33 997.6
20260505023008 14 311 9.7 20.9 0.00 0.00 0.00 33 998.0
20260505022523 15 315 12.9 17.7 0.00 0.00 0.00 33 998.0
20260505022020 15 310 9.7 12.9 0.00 0.00 0.00 34 998.0
20260505021523 15 255 4.8 8.0 0.00 0.00 0.00 34 997.6
20260505021023 15 353 6.4 8.0 0.00 0.00 0.00 33 997.6
20260505020737 15 331 8.0 17.7 0.00 0.00 0.00 33 997.3
20260505020013 15 314 12.9 16.1 0.00 0.00 0.00 33 997.0
20260505015513 15 338 4.8 11.3 0.00 0.00 0.00 33 997.0
20260505015013 15 334 8.0 9.7 0.00 0.00 0.00 34 997.0
20260505014513 16 358 12.9 12.9 0.00 0.00 0.00 34 996.6
20260505014023 16 329 8.0 9.7 0.00 0.00 0.00 34 996.3
20260505013513 16 335 11.3 14.5 0.00 0.00 0.00 33 996.3
20260505013013 16 343 6.4 9.7 0.00 0.00 0.00 33 996.3
20260505012738 16 297 6.4 8.0 0.00 0.00 0.00 33 995.9
20260505012013 17 328 8.0 9.7 0.00 0.00 0.00 32 995.9
20260505011513 17 253 9.7 11.3 0.00 0.00 0.00 31 995.9
20260505011237 17 1 4.8 12.9 0.00 0.00 0.00 31 995.6
20260505010513 17 332 9.7 9.7 0.00 0.00 0.00 31 995.6
20260505010013 17 268 4.8 12.9 0.00 0.00 0.00 31 995.9
20260505005523 17 346 9.7 12.9 0.00 0.00 0.00 30 995.6
20260505005013 17 208 1.6 4.8 0.00 0.00 0.00 30 995.6
20260505004513 18 311 8.0 9.7 0.00 0.00 0.00 30 995.3
20260505004022 18 168 4.8 8.0 0.00 0.00 0.00 29 995.3
20260505003513 18 251 6.4 9.7 0.00 0.00 0.00 29 995.3
20260505003013 18 326 12.9 19.3 0.00 0.00 0.00 29 994.9
20260505002523 18 195 4.8 6.4 0.00 0.00 0.00 29 994.9
20260505002013 18 344 8.0 11.3 0.00 0.00 0.00 30 994.6
20260505001513 18 189 3.2 6.4 0.00 0.00 0.00 30 994.6
20260505001023 18 287 6.4 8.0 0.00 0.00 0.00 30 994.6
20260505000513 18 278 1.6 9.7 0.00 0.00 0.00 29 994.2
20260505000013 19 187 3.2 6.4 0.00 0.00 0.00 29 994.2
20260504235522 19 321 16.1 22.5 0.00 0.00 0.00 29 994.2
20260504235011 19 318 8.0 9.7 0.00 0.00 0.00 29 994.2
20260504234723 20 284 6.4 12.9 0.00 0.00 0.00 30 994.2
20260504234022 20 317 3.2 4.8 0.00 0.00 0.00 29 993.9
20260504233516 20 318 3.2 12.9 0.00 0.00 0.00 30 993.9
20260504233228 20 309 4.8 9.7 0.00 0.00 0.00 30 994.2
20260504232513 20 24 8.0 8.0 0.00 0.00 0.00 31 994.2
20260504232236 20 332 11.3 19.3 0.00 0.00 0.00 30 993.6
20260504231513 20 337 11.3 14.5 0.00 0.00 0.00 30 993.9
20260504231003 20 155 0.0 8.0 0.00 0.00 0.00 30 993.6
20260504230505 20 268 1.6 4.8 0.00 0.00 0.00 29 993.6
20260504230444 20 269 0.0 16.1 0.00 0.00 0.00 29 993.9
20260504230423 20 325 12.9 16.1 0.00 0.00 0.00 29 993.9
20260504225013 21 259 3.2 9.7 0.00 0.00 0.00 29 993.6
20260504224513 21 285 1.6 11.3 0.00 0.00 0.00 29 993.6
20260504224023 21 322 19.3 20.9 0.00 0.00 0.00 29 993.6
20260504223520 21 222 8.0 16.1 0.00 0.00 0.00 29 993.6
20260504223013 21 300 8.0 9.7 0.00 0.00 0.00 30 993.6
20260504222513 22 320 4.8 14.5 0.00 0.00 0.00 31 993.6
20260504222013 22 309 9.7 22.5 0.00 0.00 0.00 32 993.2
20260504221513 22 263 3.2 9.7 0.00 0.00 0.00 32 993.6
20260504221023 22 235 8.0 16.1 0.00 0.00 0.00 32 993.2
20260504220513 22 177 16.1 19.3 0.00 0.00 0.00 31 993.2
20260504220013 22 225 9.7 14.5 0.00 0.00 0.00 31 993.2
20260504215522 22 165 6.4 9.7 0.00 0.00 0.00 32 992.6
20260504215008 22 35 4.8 9.7 0.00 0.00 0.00 32 992.9
20260504214523 22 324 9.7 19.3 0.00 0.00 0.00 31 992.6
20260504214023 22 277 4.8 11.3 0.00 0.00 0.00 32 992.6
20260504213720 23 256 4.8 11.3 0.00 0.00 0.00 31 992.6
20260504213443 23 262 11.3 14.5 0.00 0.00 0.00 32 992.6
20260504212523 23 297 6.4 11.3 0.00 0.00 0.00 32 992.6
20260504212013 23 319 4.8 11.3 0.00 0.00 0.00 31 992.6
20260504211513 23 315 11.3 14.5 0.00 0.00 0.00 31 992.2
20260504211023 23 250 14.5 16.1 0.00 0.00 0.00 30 992.2
20260504210520 23 298 20.9 20.9 0.00 0.00 0.00 30 992.2
20260504210013 24 237 12.9 14.5 0.00 0.00 0.00 30 992.2
20260504205503 24 342 6.4 9.7 0.00 0.00 0.00 31 992.2
20260504205442 24 281 4.8 6.4 0.00 0.00 0.00 32 992.2
20260504204513 25 211 8.0 12.9 0.00 0.00 0.00 32 992.2
20260504204023 25 247 9.7 14.5 0.00 0.00 0.00 33 992.2
20260504203513 24 213 9.7 9.7 0.00 0.00 0.00 32 991.9
20260504203013 25 201 8.0 11.3 0.00 0.00 0.00 32 991.9
20260504202523 24 268 6.4 9.7 0.00 0.00 0.00 32 991.9
20260504202013 25 202 12.9 14.5 0.00 0.00 0.00 31 992.2
20260504201513 25 172 6.4 9.7 0.00 0.00 0.00 32 991.9
20260504201023 24 70 3.2 8.0 0.00 0.00 0.00 32 991.9
20260504200520 24 198 8.0 11.3 0.00 0.00 0.00 33 992.2
20260504200013 24 214 12.9 24.1 0.00 0.00 0.00 32 992.2
20260504195513 24 288 8.0 8.0 0.00 0.00 0.00 32 992.2
20260504195020 24 191 11.3 12.9 0.00 0.00 0.00 33 992.2
20260504194513 23 208 4.8 11.3 0.00 0.00 0.00 32 992.2
20260504194003 24 275 3.2 8.0 0.00 0.00 0.00 32 991.9
20260504193513 24 204 6.4 12.9 0.00 0.00 0.00 32 992.2
20260504193013 24 217 14.5 14.5 0.00 0.00 0.00 32 992.2
20260504192523 23 185 8.0 9.7 0.00 0.00 0.00 32 992.2
20260504192013 23 178 8.0 19.3 0.00 0.00 0.00 32 992.6
20260504191513 24 202 11.3 12.9 0.00 0.00 0.00 31 992.2
20260504191022 24 285 6.4 12.9 0.00 0.00 0.00 32 992.2
20260504190511 23 319 4.8 11.3 0.00 0.00 0.00 31 992.2
20260504190222 24 213 8.0 20.9 0.00 0.00 0.00 30 992.2
20260504185523 24 311 3.2 14.5 0.00 0.00 0.00 30 992.6
20260504185013 24 234 14.5 17.7 0.00 0.00 0.00 30 992.2
20260504184522 24 210 16.1 20.9 0.00 0.00 0.00 30 992.6
20260504184013 25 245 6.4 9.7 0.00 0.00 0.00 30 992.2
20260504183513 25 223 14.5 19.3 0.00 0.00 0.00 30 992.2
20260504183023 25 206 12.9 17.7 0.00 0.00 0.00 29 992.2
20260504182513 25 230 6.4 14.5 0.00 0.00 0.00 30 992.2
20260504182013 25 200 4.8 12.9 0.00 0.00 0.00 30 992.2
20260504181513 25 255 17.7 22.5 0.00 0.00 0.00 30 992.6
20260504181023 24 160 9.7 9.7 0.00 0.00 0.00 30 992.2
20260504180513 24 213 6.4 19.3 0.00 0.00 0.00 30 992.6
20260504180013 24 180 16.1 22.5 0.00 0.00 0.00 30 992.2
20260504175522 23 232 17.7 22.5 0.00 0.00 0.00 30 992.6
20260504175020 23 224 4.8 9.7 0.00 0.00 0.00 30 992.6
20260504174513 23 191 8.0 12.9 0.00 0.00 0.00 30 992.6
20260504174238 24 237 12.9 17.7 0.00 0.00 0.00 30 992.6
20260504173727 23 211 12.9 19.3 0.00 0.00 0.00 30 992.9
20260504173013 23 214 11.3 17.7 0.00 0.00 0.00 30 992.9
20260504172523 23 204 19.3 20.9 0.00 0.00 0.00 30 992.9
20260504172020 23 213 9.7 16.1 0.00 0.00 0.00 31 992.9
20260504171513 23 283 16.1 24.1 0.00 0.00 0.00 31 993.2
20260504171003 23 289 12.9 16.1 0.00 0.00 0.00 30 992.9
20260504170513 23 174 12.9 19.3 0.00 0.00 0.00 31 992.9
20260504151022 19 224 9.7 9.7 0.00 0.00 0.00 44 994.9
20260504150513 19 116 6.4 8.0 0.00 0.00 0.00 45 994.9
20260504140736 17 187 3.2 3.2 0.00 0.00 0.00 48 995.9
20260504130521 14 180 8.0 9.7 0.00 0.00 0.00 56 997.3
20260504110513 11 134 3.2 9.7 0.00 0.00 0.00 72 998.6
20260504100513 11 153 6.4 8.0 0.00 0.00 0.00 73 999.7